sat.trackr.live / text

‹ back to catalog

CENTISPACE-1 S13

NORAD 62582 · 2025-007H

PAYLOAD ACTIVE UNKNOWN

§ Identity

Operator
Country
PRC
Launch date
2025-01-13
Launch site
YSLA
Launch vehicle
Mass (kg)
RCS (m²)

External: N2YO · Heavens-Above · Gunter

§ Orbital elements

Epoch: 2026-09-22T18:07:12.993600Z

Period
104.30 min
Inclination
54.9815°
Eccentricity
0.0009105
Mean motion
13.80626679 rev/d
Perigee alt
955.0 km
Apogee alt
968.3 km
Semi-major
7,339.8 km
B*
6.8936e-5
RAAN
310.2859°
Arg perigee
278.1750°
Mean anomaly
81.8174°
Rev number
8,820

§ Raw data

CENTISPACE-1 S131 62582U 25007H   26265.75501150 -.00000068  00000+0  68936-4 0  99922 62582  54.9815 310.2859 0009105 278.1750  81.8174 13.80626679 88205

JSON: /api/v1/satellites/62582 · /tle

For live sub-satellite position, see the globe view (requires WebGL).

§ Visibility from observer

Set your observer location to see the next 7 days of passes ≥ 10°. The values pass through the URL so the page stays shareable.

No JS? Fill the form by hand. The geolocation button needs JavaScript.

§ Radio — SatNOGS DB

ModeDescriptionDownlinkUplink
BPSK S-band telemetry 2.217 GHz

1 transmitter · refreshed weekly from db.satnogs.org